Location: Feigenhofen
(48.4939°N, 10.7793°E)
Time: 22:48:22
(UTC+00:00)

USA 308 - Pass Details

Date: 26 May 2022
Orbit: 549 x 558 km, 54.0° (Epoch: 14 June)

Event Time Altitude Azimuth Distance (km) Brightness Sun altitude
Exits shadow 00:40:53 40° 217° (SW) 834 3.2 -17.7°
Maximum altitude 00:42:16 69° 147° (SSE) 600 2.8 -17.7°
Drops below altitude 10° 00:46:26 10° 64° (ENE) 1,841 6.2 -17.4°
Sets 00:48:43 0° 62° (ENE) 2,751 7.2 -17.3°
